This demonstration page uses our WeatherBlox Daily Observations layout. Learn more.

Left ArrowRight Arrow

34.02893, -84.19858

Hourly Observations for July 16, 2018

Temp ( °F °C ) Dew Point ( °F °C ) Humidity (%) Winds ( mph kmh ) Pressure ( in mb ) Visibility ( mi km ) Precip ( " mm )
12:03 am 00:03 Cloudy with Nearby Thunderstorms 75 23.9 73 22.8 94 94 W 15 24 30.06 1018 2 2 0.18 4.57
12:13 am 00:13 Cloudy with Nearby Thunderstorms 74 23.3 73 22.8 97 97 W 13 20 30.06 1018 1 1 0.64 16.26
12:20 am 00:20 Cloudy with Strong Thunderstorms 73 22.8 72 22.2 96 96 NW 10 17 30.06 1018 1 2 0.87 22.10
12:47 am 00:47 Cloudy with Thunderstorms 72 22 72 22 100 100 Calm 30.03 1017 3 5 1.37 34.80
12:48 am 00:48 Cloudy with Thunderstorms 71 21.7 71 21.7 100 100 ESE 3 6 30.01 1016 3 5 1.37 34.80
12:58 am 00:58 Mostly Cloudy with Light Rain 72 22.2 71 21.7 97 97 Calm 30.03 1017 5 8 0.01 0.25
1:53 am 01:53 Mostly Clear 73 22.8 72 22.2 96 96 Calm 30.00 1016 10 16 0.01 0.25
2:53 am 02:53 Clear with Mist and Fog 73 22.8 72 22.2 96 96 NNE 3 6 29.96 1015 6 10 0.00 0.00
3:53 am 03:53 Clear 73 22.8 73 22.8 100 100 Calm 29.96 1015 8 13 0.00 0.00
4:53 am 04:53 Mostly Cloudy 73 22.8 72 22.2 96 96 Calm 29.98 1015 8 13 0.00 0.00
5:53 am 05:53 Partly Cloudy 74 23.3 72 22.2 94 94 N 3 6 30.00 1016 10 16 0.00 0.00
6:53 am 06:53 Partly Cloudy 74 23.3 73 22.8 97 97 Calm 30.01 1016 8 13 0.00 0.00
7:53 am 07:53 Sunny 75 23.9 74 23.3 96 96 Calm 30.00 1016 7 11 0.00 0.00
8:46 am 08:46 Partly Cloudy 78 25.6 75 23.9 90 90 SSW 5 7 30.00 1016 8 13 0.00 0.00
8:53 am 08:53 Partly Cloudy 77 25 74 23.3 90 90 VRB 3 6 30.02 1017 8 13 0.00 0.00
9:18 am 09:18 Cloudy 78 25.6 74 23.3 87 87 SSW 5 7 30.03 1017 9 14 0.00 0.00
9:53 am 09:53 Cloudy 78 25.6 74 23.3 87 87 Calm 30.03 1017 8 13 0.00 0.00
10:41 am 10:41 Cloudy 80 26.7 75 23.9 85 85 Calm 30.03 1017 8 13 0.00 0.00
10:53 am 10:53 Cloudy 80 26.7 74 23.3 82 82 Calm 30.03 1017 8 13 0.00 0.00
11:01 am 11:01 Cloudy 80 26.7 74 23.3 82 82 Calm 30.03 1017 8 13 0.00 0.00
11:15 am 11:15 Mostly Cloudy 81 27.2 75 23.9 82 82 Calm 30.03 1017 8 13 0.00 0.00
11:38 am 11:38 Partly Cloudy 82 27.8 74 23.3 77 77 Calm 30.03 1017 8 13 0.00 0.00
11:53 am 11:53 Mostly Sunny 82 27.8 74 23.3 77 77 Calm 30.02 1017 8 13 0.00 0.00
12:06 pm 12:06 Mostly Cloudy 82 27.8 75 23.9 79 79 WSW 6 9 30.03 1017 8 13 0.00 0.00
12:22 pm 12:22 Mostly Cloudy 83 28.3 75 23.9 77 77 SW 3 6 30.00 1016 8 13 0.00 0.00
12:50 pm 12:50 Mostly Cloudy 84 29 75 24 74 74 SW 6 9 30.00 1016 8 13 0.00 0.00
12:53 pm 12:53 Mostly Cloudy 84 28.9 75 23.9 74 74 VRB 3 6 30.02 1017 8 13 0.00 0.00
1:12 pm 13:12 Mostly Cloudy 84 28.9 74 23.3 72 72 VRB 5 7 30.00 1016 8 13 0.00 0.00
1:53 pm 13:53 Mostly Cloudy 87 30.6 75 23.9 67 67 SW 8 13 29.99 1016 9 14 0.00 0.00
2:16 pm 14:16 Partly Cloudy with Nearby Thunderstorms 86 30 75 23.9 70 70 SW 12 19 29.97 1015 8 13 0.00 0.00
2:53 pm 14:53 Sunny with Nearby Thunderstorms 85 29.4 73 22.8 68 68 W 9 15 29.97 1015 9 14 0.00 0.00
3:14 pm 15:14 Mostly Cloudy with Thunderstorms 83 28.3 74 23.3 74 74 N 13 20 29.97 1015 9 14 0.00 0.00
3:22 pm 15:22 Windy with Storms Likely 79 26.1 73 22.8 82 82 NNW 24 39 29.97 1015 3 4 0.06 1.52
3:25 pm 15:25 Mostly Cloudy with Nearby Thunderstorms 76 24.4 71 21.7 85 85 N 17 28 30.00 1016 1 2 0.16 4.06
3:31 pm 15:31 Cloudy with Strong Thunderstorms 74 23.3 70 21.1 88 88 NE 7 11 30.00 1016 8 13 0.19 4.83
3:46 pm 15:46 Cloudy with Strong Thunderstorms 76 24.4 74 23.3 94 94 NNW 24 39 30.00 1016 8 13 0.43 10.92
3:53 pm 15:53 Cloudy with Strong Thunderstorms 74 23.3 70 21.1 88 88 N 15 24 29.98 1015 1 1 0.60 15.24
3:57 pm 15:57 Cloudy with Thunderstorms 76 24.4 72 22.2 88 88 NNW 22 35 30.00 1016 1 1 0.06 1.52
4:02 pm 16:02 Cloudy with Strong Thunderstorms 74 23.3 72 22.2 94 94 N 13 20 30.00 1016 1 1 0.30 7.62
4:09 pm 16:09 Cloudy with Nearby Thunderstorms 74 23.3 72 22.2 94 94 ENE 5 7 30.00 1016 1 1 0.41 10.41
4:14 pm 16:14 Cloudy with Nearby Thunderstorms 75 23.9 72 22.2 90 90 ENE 3 6 30.00 1016 3 4 0.41 10.41
4:21 pm 16:21 Cloudy with Nearby Thunderstorms 75 23.9 74 23.3 96 96 Calm 29.97 1015 3 5 0.43 10.92
4:28 pm 16:28 Mostly Cloudy with Nearby Thunderstorms 75 23.9 73 22.8 94 94 ENE 3 6 30.00 1016 8 13 0.43 10.92
4:36 pm 16:36 Mostly Cloudy 76 24.4 74 23.3 94 94 E 3 6 29.94 1014 8 13 0.44 11.18
4:49 pm 16:49 Partly Cloudy with Nearby Thunderstorms 79 26 75 24 89 89 VRB 3 6 29.94 1014 8 13 0.44 11.18
4:53 pm 16:53 Sunny with Nearby Thunderstorms 78 25.6 76 24.4 93 93 S 5 7 29.96 1015 8 13 0.44 11.18
5:01 pm 17:01 Partly Cloudy with Thunderstorms 77 25 75 23.9 94 94 SSE 7 11 29.94 1014 8 13 0.00 0.00
5:33 pm 17:33 Mostly Sunny 77 25 73 22.8 88 88 Calm 29.94 1014 8 13 0.00 0.00
5:53 pm 17:53 Partly Cloudy with Light Rain 77 25 74 23.3 90 90 VRB 3 6 29.96 1014 9 14 0.00 0.03
6:53 pm 18:53 Sunny 79 26.1 75 23.9 88 88 Calm 29.95 1014 10 16 0.00 0.03
7:53 pm 19:53 Sunny 78 25.6 75 23.9 90 90 Calm 29.95 1014 9 14 0.00 0.00
8:53 pm 20:53 Mostly Cloudy 77 25 74 23.3 90 90 Calm 29.96 1015 10 16 0.00 0.00
9:48 pm 21:48 Cloudy 77 25 75 24 94 94 SW 6 9 29.97 1015 10 16 0.00 0.00
9:53 pm 21:53 Cloudy 77 25 74 23.3 90 90 W 9 15 29.98 1015 10 16 0.00 0.00
10:10 pm 22:10 Cloudy with Heavy Rain 74 23.3 72 22.2 94 94 WSW 10 17 30.03 1017 2 3 0.18 4.57
10:19 pm 22:19 Cloudy with Rain 74 23.3 72 22.2 94 94 W 6 9 30.03 1017 2 3 0.23 5.84
10:53 pm 22:53 Mostly Cloudy with Nearby Thunderstorms 74 23.3 73 22.8 97 97 S 3 6 30.01 1016 2 3 0.24 6.10
11:00 pm 23:00 Mostly Cloudy with Nearby Thunderstorms 74 23.3 73 22.8 97 97 S 3 6 30.03 1017 9 14 0.00 0.00
11:34 pm 23:34 Clear 73 22.8 73 22.8 100 100 SE 3 6 30.03 1017 9 14 0.01 0.25
11:53 pm 23:53 Clear with Light Rain 73 22.8 72 22.2 96 96 Calm 30.01 1016 9 14 0.01 0.25

Powered by AerisWeather